Regional Weather Roundup
Issued by NWS

Home | Current Version | Previous Version | Graphics & Text | Print | Product List | Glossary On
Versions: 1 2 3 4 5 6 7 8 9 10 11 12 13 14 15 16 17 18 19 20 21 22 23 24 25 26 27
000
ASUS45 KTFX 272210
RWRMT
MONTANA REGIONAL WEATHER ROUNDUP
NATIONAL WEATHER SERVICE GREAT FALLS MT
400 PM MDT THU APR 27 2017

NOTE: "FAIR" INDICATES FEW OR NO CLOUDS BELOW 12000 FEET WITH NO
SIGNIFICANT WEATHER AND/OR OBSTRUCTIONS TO VISIBILITY.

MTZ001>007-043-272300-
WEST OF THE DIVIDE

CITY           SKY/WX    TMP DP  RH WIND       PRES   REMARKS
KALISPELL      LGT RAIN  42  38  85 S12       29.81R FOG
MISSOULA       CLOUDY    49  30  48 NW17G23   29.83S
BUTTE          CLOUDY    42  27  55 N20G25    29.74R
MULLAN PASS    FLURRIES  29  27  92 VRB3      29.82R
ANACONDA         N/A     46  16  29 W13G22    29.75R
DEER LODGE       N/A     43  27  52 W15G25    29.78R
EUREKA           N/A     46  36  66 SE12      29.76R
HAMILTON         N/A     46  19  34 N5        29.82F
LIBBY            N/A     48  28  46 W5        29.80S
PLAINS           N/A     49  31  50 W6        29.86S
$$

MTZ008-052>055-272300-
SOUTHWEST MONTANA

CITY           SKY/WX    TMP DP  RH WIND       PRES   REMARKS
BOZEMAN        CLOUDY    42  36  79 SE9       29.72S
DILLON         CLOUDY    44  20  38 VRB3      29.71S
W YELLOWSTONE  CLOUDY    34  27  75 E5        29.69S
THREE FORKS      N/A     44  27  51 SE6       29.74R
TWIN BRIDGES     N/A     40  27  60 S10       29.76R
$$

MTZ009-010-012-014-046-048-049-054-272300-
EAST SLOPES AND CENTRAL MONTANA

CITY           SKY/WX    TMP DP  RH WIND       PRES   REMARKS
CUT BANK       CLOUDY    38  34  85 NE6       29.75F
GREAT FALLS    LGT RAIN  41  34  76 W17G29    29.73R
MALMSTROM AFB  CLOUDY    44  38  78 NW15G22   29.73R
HELENA         CLOUDY    50  23  34 W13G23    29.71S
AUGUSTA        LGT RAIN  39  35  86 N13       29.75R WCI  32
CHOTEAU          N/A     39  39 100 N9G16     29.77R
RAYNESFORD     LGT RAIN  38  36  92 W18       29.72S WCI  29
$$

MTZ011-013-016-021-045-047-050-051-272300-
NORTH CENTRAL MONTANA

CITY           SKY/WX    TMP DP  RH WIND       PRES   REMARKS
HAVRE          CLOUDY    45  37  73 N12       29.72R
LEWISTOWN      CLOUDY    43  35  73 NW15G23   29.67S
N BAR RANCH    LGT RAIN  41  37  87 NW15      29.69R
CHINOOK          N/A     45  39  81 N7        29.71S
FORT BENTON      N/A     45  39  81 MISG      29.72R
GEYSER         PTSUNNY   41  36  80 W25G32    29.69S
JUDITH GAP     LGT RAIN  40  35  81 N21G26    29.67R
STANFORD         N/A     41  34  77 NW25G33   29.68R
$$

MTZ017>020-022>027-061-062-272300-
NORTHEAST MONTANA

CITY           SKY/WX    TMP DP  RH WIND       PRES   REMARKS
GLASGOW        MOSUNNY   55  23  28 E8        29.68R
JORDAN           N/A     54  28  36 MISG      29.65R
SIDNEY         SUNNY     54  19  25 E14       29.71S
WOLF POINT     SUNNY     56  20  24 E12G21    29.70S
MALTA          PTSUNNY   52  37  58 N7        29.67S
PLENTYWOOD       N/A     50  10  20 SE8       29.74S
POPLAR           N/A     52  18  25 E7        29.71F
$$

MTZ028>42-056>058-272300-
SOUTHCENTRAL AND SOUTHEAST MONTANA

CITY           SKY/WX    TMP DP  RH WIND       PRES   REMARKS
BAKER          SUNNY     50  25  37 SE9       29.67R
BILLINGS       CLOUDY    46  40  79 NE7       29.66R
LIVINGSTON     CLOUDY    44  35  70 SW20      29.68S
MILES CITY     CLOUDY    54  29  38 VRB6      29.64R
BIG TIMBER     MOSUNNY   45  34  65 SW21G26   29.69S
LAUREL           N/A     45  34  65 N9        29.67R
ROUNDUP          N/A     42  36  79 W12       29.62R
$$

REGIONAL REPORTS...DAKOTAS

CITY           SKY/WX    TMP DP  RH WIND       PRES   REMARKS
WILLISTON      SUNNY     54  18  24 SE8G17    29.73S
MINOT          SUNNY     53  18  25 NE14G23   29.72F
DICKINSON      SUNNY     49  21  33 NE12G21   29.67S
BEACH            N/A     50  19  29 E13G20    29.71S
TIOGA            N/A     48   5  17 E8G17     29.75S
WATFORD CITY     N/A     50  16  25 E12       29.72S
BISMARCK       MOSUNNY   53  27  36 E13       29.71S
GRAND FORKS    CLOUDY    46  32  58 N16G24    29.65S
FARGO          SUNNY     39  28  64 NW8       29.67F
BUFFALO SD       N/A     50  27  40 E8G18     29.59S
RAPID CITY     PTSUNNY   46  32  58 E8        29.63S
$$

REGIONAL REPORTS...WYOMING/IDAHO/WASHINGTON

CITY           SKY/WX    TMP DP  RH WIND       PRES   REMARKS
GILLETTE       LGT RAIN  39  38  96 N6        29.58S
SHERIDAN       LGT SNOW  34  32  92 NW6       29.64R FOG     WCI  29
BUFFALO WY     MIX PCPN  35  30  82 N21G28    29.60R WCI  24
CODY           CLOUDY    44  34  67 N16G25    29.62R
YELLOWSTONE LA   N/A     31  23  72 W6        29.68R WCI  25
IDAHO FALLS    LGT RAIN  43  36  76 SW22G33   29.75S
SALMON         PTSUNNY   46  23  39 N16G22    29.77F
BOISE          CLOUDY    49  25  39 NW16G25   29.94S
SPOKANE        CLOUDY    48  35  60 SW12      29.88S
$$

REGIONAL REPORTS...ALBERTA

CITY           SKY/WX    TMP DP  RH WIND       PRES   REMARKS
EDMONTON       CLOUDY    41  30  65 E7        29.82R
CALGARY        MOSUNNY   43  28  56 NE12G20   29.72S
LETHBRIDGE     PTSUNNY   45  34  65 VRB7      29.74F
MILK RIVER       N/A     45  32  61 N7          N/A
$$

REGIONAL REPORTS...SASKATCHEWAN

CITY           SKY/WX    TMP DP  RH WIND       PRES   REMARKS
SWIFT CURRENT  CLOUDY    46  32  57 S12       29.72R
REGINA         MOSUNNY   50  12  22 E8        29.78S
SASKATOON      CLOUDY    48  18  29 SE15G22   29.82S
CYPRESS HILLS    N/A     37  30  75 N8          N/A  WCI  31
ROCKGLEN         N/A     50  21  32 SE7         N/A
$$




USA.gov is the U.S. government's official web portal to all federal, state and local government web resources and services.